Weather History for Clermont County, Batavia, OH

Change the Weather History Date:

Sunday, April 20, 2014

  Actual Average (KLUK) Record (KLUK)
Temperature  
Mean Temperature 60 °F -  
Max Temperature 77 °F 69 °F 88 °F (1976)
Min Temperature 44 °F 45 °F 29 °F (1969)
Degree Days  
Heating Degree Days 4    
Growing Degree Days 10 (Base 50)    
Moisture  
Dew Point 34 °F    
Average Humidity 38    
Maximum Humidity 66    
Minimum Humidity 21    
Precipitation  
Precipitation 0.00 in - - ()
Sea Level Pressure  
Sea Level Pressure 30.21 in    
Wind  
Wind Speed 2 mph (ESE)    
Max Wind Speed 9 mph    
Max Gust Speed 16 mph    
Visibility 10 miles    
Events      
Averages and records for this station are not official NWS values.
T = Trace of Precipitation, MM = Missing Value Source: NWS Daily Summary

Daily Weather History Graph

Daily Weather History Graph

Search for Another Location

Airport:

Trip Planner

Search our weather history database for the weather conditions in past years. The results will help you decide how hot, cold, wet, or windy it might be!

Date:

Astronomy

Apr. 20, 2014 Rise Set
Actual Time 6:53 AM EDT 8:19 PM EDT
Civil Twilight 6:25 AM EDT 8:47 PM EDT
Nautical Twilight 5:51 AM EDT 9:20 PM EDT
Astronomical Twilight 5:16 AM EDT 9:56 PM EDT
Moon 12:57 AM EDT (4/20) 11:13 AM EDT (4/20)
Length of Visible Light 14h 22m
Length of Day
13h 26m
Waning Gibbous, 69% of the Moon is Illuminated
Apr 20
Waning Gibbous
Apr 22
Last Quarter
Apr 29
New
May 6
First Quarter
May 14
Full

Hourly Weather History & Observations

Time (EDT) Temp. Windchill Dew Point Humidity Pressure Visibility Wind Dir Wind Speed Gust Speed Precip Events Conditions
12:17 AM 55.4 °F - 32.0 °F 41% 30.25 in 10.0 mi Calm Calm - N/A   Clear
12:36 AM 53.6 °F - 32.0 °F 44% 30.25 in 10.0 mi Calm Calm - N/A   Clear
12:57 AM 53.6 °F - 32.0 °F 44% 30.25 in 10.0 mi Calm Calm - N/A   Clear
1:16 AM 53.6 °F - 32.0 °F 44% 30.25 in 10.0 mi NE 3.5 mph - N/A   Clear
1:37 AM 51.8 °F - 32.0 °F 47% 30.25 in 10.0 mi Calm Calm - N/A   Clear
1:57 AM 51.8 °F - 32.0 °F 47% 30.24 in 10.0 mi NE 3.5 mph - N/A   Clear
2:16 AM 51.8 °F - 32.0 °F 47% 30.24 in 10.0 mi Calm Calm - N/A   Clear
2:37 AM 50.0 °F - 32.0 °F 50% 30.24 in 10.0 mi NNE 3.5 mph - N/A   Clear
2:57 AM 50.0 °F - 32.0 °F 50% 30.23 in 10.0 mi NNE 3.5 mph - N/A   Clear
3:17 AM 50.0 °F - 32.0 °F 50% 30.23 in 10.0 mi North 4.6 mph - N/A   Clear
3:37 AM 50.0 °F - 32.0 °F 50% 30.24 in 10.0 mi NNE 3.5 mph - N/A   Clear
3:57 AM 48.2 °F - 32.0 °F 54% 30.23 in 10.0 mi Calm Calm - N/A   Clear
4:16 AM 46.4 °F - 32.0 °F 57% 30.24 in 10.0 mi Calm Calm - N/A   Clear
4:37 AM 46.4 °F - 32.0 °F 57% 30.24 in 10.0 mi Calm Calm - N/A   Clear
4:57 AM 46.4 °F - 32.0 °F 57% 30.24 in 10.0 mi Calm Calm - N/A   Clear
5:16 AM 46.4 °F - 32.0 °F 57% 30.25 in 10.0 mi Calm Calm - N/A   Clear
5:37 AM 44.6 °F 43.1 °F 32.0 °F 61% 30.25 in 10.0 mi North 3.5 mph - N/A   Clear
5:57 AM 44.6 °F - 32.0 °F 61% 30.25 in 10.0 mi Calm Calm - N/A   Clear
6:16 AM 44.6 °F 43.1 °F 32.0 °F 61% 30.25 in 10.0 mi North 3.5 mph - N/A   Clear
6:37 AM 44.6 °F - 32.0 °F 61% 30.26 in 10.0 mi Calm Calm - N/A   Clear
6:57 AM 44.6 °F - 32.0 °F 61% 30.26 in 10.0 mi Calm Calm - N/A   Clear
7:16 AM 44.6 °F - 32.0 °F 61% 30.27 in 10.0 mi Calm Calm - N/A   Clear
7:37 AM 46.4 °F - 32.0 °F 57% 30.27 in 10.0 mi Calm Calm - N/A   Clear
8:16 AM 46.4 °F - 35.6 °F 66% 30.28 in 10.0 mi Calm Calm - N/A   Clear
8:37 AM 48.2 °F - 33.8 °F 58% 30.27 in 10.0 mi Calm Calm - N/A   Clear
8:57 AM 51.8 °F - 33.8 °F 50% 30.27 in 10.0 mi East 3.5 mph - N/A   Clear
9:16 AM 53.6 °F - 33.8 °F 47% 30.26 in 10.0 mi East 5.8 mph - N/A   Clear
9:37 AM 57.2 °F - 33.8 °F 41% 30.27 in 10.0 mi East 3.5 mph - N/A   Clear
9:57 AM 59.0 °F - 32.0 °F 36% 30.27 in 10.0 mi Calm Calm - N/A   Clear
10:16 AM 60.8 °F - 32.0 °F 34% 30.27 in 10.0 mi East 3.5 mph - N/A   Clear
10:37 AM 62.6 °F - 32.0 °F 32% 30.27 in 10.0 mi SE 3.5 mph - N/A   Clear
10:57 AM 64.4 °F - 32.0 °F 30% 30.26 in 10.0 mi East 3.5 mph - N/A   Clear
11:16 AM 64.4 °F - 32.0 °F 30% 30.25 in 10.0 mi Calm Calm - N/A   Clear
11:37 AM 68.0 °F - 32.0 °F 26% 30.25 in 10.0 mi NE 3.5 mph - N/A   Clear
11:57 AM 69.8 °F - 33.8 °F 27% 30.25 in 10.0 mi ESE 6.9 mph - N/A   Clear
12:16 PM 69.8 °F - 32.0 °F 25% 30.24 in 10.0 mi Calm Calm - N/A   Clear
12:37 PM 69.8 °F - 32.0 °F 25% 30.24 in 10.0 mi Calm Calm - N/A   Clear
12:57 PM 71.6 °F - 32.0 °F 23% 30.23 in 10.0 mi East 6.9 mph - N/A   Clear
1:16 PM 71.6 °F - 33.8 °F 25% 30.23 in 10.0 mi East 6.9 mph - N/A   Clear
1:37 PM 71.6 °F - 32.0 °F 23% 30.23 in 10.0 mi SSE 6.9 mph 16.1 mph N/A   Clear
1:57 PM 73.4 °F - 32.0 °F 22% 30.22 in 10.0 mi SSW 5.8 mph - N/A   Clear
2:16 PM 73.4 °F - 32.0 °F 22% 30.21 in 10.0 mi South 8.1 mph - N/A   Clear
2:37 PM 73.4 °F - 35.6 °F 25% 30.20 in 10.0 mi Calm Calm - N/A   Clear
2:57 PM 75.2 °F - 33.8 °F 22% 30.20 in 10.0 mi South 8.1 mph - N/A   Clear
3:16 PM 75.2 °F - 35.6 °F 24% 30.19 in 10.0 mi SW 6.9 mph - N/A   Clear
3:37 PM 75.2 °F - 35.6 °F 24% 30.19 in 10.0 mi South 9.2 mph - N/A   Clear
3:57 PM 77.0 °F - 35.6 °F 22% 30.18 in 10.0 mi Calm Calm - N/A   Clear
4:17 PM 77.0 °F - 35.6 °F 22% 30.17 in 10.0 mi Calm Calm - N/A   Clear
4:37 PM 77.0 °F - 35.6 °F 22% 30.17 in 10.0 mi South 3.5 mph - N/A   Clear
4:57 PM 77.0 °F - 35.6 °F 22% 30.15 in 10.0 mi West 4.6 mph - N/A   Clear
5:17 PM 77.0 °F - 33.8 °F 21% 30.15 in 10.0 mi SW 5.8 mph - N/A   Clear
5:37 PM 77.0 °F - 35.6 °F 22% 30.15 in 10.0 mi West 6.9 mph - N/A   Clear
5:57 PM 77.0 °F - 33.8 °F 21% 30.14 in 10.0 mi SW 4.6 mph - N/A   Clear
6:17 PM 77.0 °F - 33.8 °F 21% 30.13 in 10.0 mi Calm Calm - N/A   Clear
6:37 PM 75.2 °F - 35.6 °F 24% 30.13 in 10.0 mi Calm Calm - N/A   Clear
6:57 PM 73.4 °F - 35.6 °F 25% 30.13 in 10.0 mi SW 3.5 mph - N/A   Clear
7:17 PM 73.4 °F - 35.6 °F 25% 30.12 in 10.0 mi West 3.5 mph - N/A   Clear
7:37 PM 73.4 °F - 35.6 °F 25% 30.13 in 10.0 mi West 4.6 mph - N/A   Clear
7:57 PM 73.4 °F - 35.6 °F 25% 30.12 in 10.0 mi WSW 3.5 mph - N/A   Clear
8:17 PM 71.6 °F - 33.8 °F 25% 30.12 in 10.0 mi SW 3.5 mph - N/A   Clear
8:37 PM 71.6 °F - 35.6 °F 27% 30.13 in 10.0 mi Calm Calm - N/A   Clear
8:57 PM 69.8 °F - 37.4 °F 31% 30.13 in 10.0 mi Calm Calm - N/A   Clear
9:17 PM 69.8 °F - 35.6 °F 28% 30.13 in 10.0 mi Calm Calm - N/A   Clear
9:37 PM 68.0 °F - 35.6 °F 30% 30.13 in 10.0 mi Calm Calm - N/A   Clear
9:56 PM 68.0 °F - 35.6 °F 30% 30.13 in 10.0 mi Calm Calm - N/A   Clear
10:17 PM 64.4 °F - 35.6 °F 34% 30.12 in 10.0 mi Calm Calm - N/A   Clear
10:37 PM 64.4 °F - 39.2 °F 40% 30.12 in 10.0 mi Calm Calm - N/A   Clear
10:56 PM 64.4 °F - 37.4 °F 37% 30.13 in 10.0 mi Calm Calm - N/A   Clear
11:17 PM 60.8 °F - 42.8 °F 52% 30.12 in 10.0 mi Calm Calm - N/A   Clear
11:37 PM 60.8 °F - 42.8 °F 52% 30.12 in 10.0 mi Calm Calm - N/A   Clear
11:57 PM 60.8 °F - 41.0 °F 48% 30.11 in 10.0 mi Calm Calm - N/A   Clear